• In Uzbekistan
  • List of Countries
  • For 7 days
  • Water Temperature
  • Satellite Maps
  • Weather Map
  • Weather Widgets
  • user-avatar
    Login

    Hourly Weather Akhaltsikhe

    Today, 10 December, Monday

    Time Temperature Precipitation Wind Pressure Humidity
    00:00 -1°C° 0 mm 2 mps 648 mmHg 73%
    01:00 -1°C° 0 mm 2 mps 648 mmHg 74%
    02:00 -1°C° 0 mm 2 mps 647 mmHg 74%
    03:00 -1°C° 0 mm 2 mps 647 mmHg 74%
    04:00 -1°C° 0 mm 2 mps 647 mmHg 74%
    05:00 -1°C° 0 mm 3 mps 647 mmHg 74%
    06:00 -1°C° 0 mm 3 mps 647 mmHg 74%
    07:00 0°C° 0 mm 3 mps 647 mmHg 73%
    08:00 0°C° 0 mm 3 mps 647 mmHg 71%
    09:00 +1°C° 0 mm 3 mps 647 mmHg 69%
    10:00 +2°C° 0 mm 3 mps 647 mmHg 66%
    11:00 +4°C° 0 mm 3 mps 646 mmHg 63%
    12:00 +5°C° 0 mm 3 mps 646 mmHg 60%
    13:00 +5°C° 0 mm 3 mps 646 mmHg 61%
    14:00 +5°C° 0 mm 3 mps 646 mmHg 62%
    15:00 +7°C° 0 mm 2 mps 646 mmHg 63%
    16:00 +5°C° 0 mm 2 mps 646 mmHg 67%
    17:00 +4°C° 0 mm 2 mps 646 mmHg 71%
    18:00 +3°C° 0 mm 2 mps 647 mmHg 75%
    19:00 +3°C° 0 mm 2 mps 647 mmHg 76%
    20:00 +3°C° 0 mm 2 mps 647 mmHg 76%
    21:00 +3°C° 0 mm 2 mps 647 mmHg 77%
    22:00 +2°C° 0 mm 2 mps 647 mmHg 77%
    23:00 +2°C° 0 mm 2 mps 646 mmHg 77%

    Tomorrow, 11 December, Tuesday

    Time Temperature Precipitation Wind Pressure Humidity
    00:00 +2°C° 0 mm 2 mps 646 mmHg 78%
    01:00 +2°C° 0 mm 2 mps 646 mmHg 77%
    02:00 +1°C° 0 mm 3 mps 646 mmHg 77%
    03:00 +2°C° 0 mm 3 mps 646 mmHg 77%
    04:00 +2°C° 0.1 mm 3 mps 646 mmHg 77%
    05:00 +1°C° 0.1 mm 3 mps 646 mmHg 77%
    06:00 +1°C° 0.1 mm 3 mps 645 mmHg 77%
    07:00 +2°C° 0 mm 3 mps 645 mmHg 75%
    08:00 +2°C° 0 mm 3 mps 645 mmHg 74%
    09:00 +3°C° 0 mm 3 mps 645 mmHg 72%
    10:00 +4°C° 0 mm 4 mps 645 mmHg 69%
    11:00 +5°C° 0 mm 4 mps 644 mmHg 65%
    12:00 +7°C° 0 mm 4 mps 644 mmHg 62%
    13:00 +6°C° 0.1 mm 4 mps 644 mmHg 65%
    14:00 +7°C° 0.1 mm 3 mps 644 mmHg 67%
    15:00 +5°C° 0.1 mm 3 mps 643 mmHg 70%
    16:00 +5°C° 0.2 mm 3 mps 643 mmHg 72%
    17:00 +4°C° 0.2 mm 3 mps 644 mmHg 74%
    18:00 +4°C° 0.2 mm 3 mps 644 mmHg 77%
    19:00 +3°C° 0.8 mm 3 mps 644 mmHg 80%
    20:00 +3°C° 0.8 mm 3 mps 644 mmHg 83%
    21:00 +3°C° 0.8 mm 2 mps 644 mmHg 87%
    22:00 +3°C° 1.5 mm 2 mps 644 mmHg 88%
    23:00 +4°C° 1.5 mm 1 mps 645 mmHg 90%

    Day after tomorrow, 12 December, Wednesday

    Time Temperature Precipitation Wind Pressure Humidity
    00:00 +4°C° 1.5 mm 1 mps 645 mmHg 92%
    01:00 +4°C° 0.8 mm 1 mps 645 mmHg 92%
    02:00 +3°C° 0.8 mm 1 mps 646 mmHg 92%
    03:00 +3°C° 0.8 mm 1 mps 646 mmHg 92%
    04:00 +3°C° 0.4 mm 1 mps 646 mmHg 92%
    05:00 +3°C° 0.4 mm 1 mps 646 mmHg 92%
    06:00 +3°C° 0.4 mm 1 mps 646 mmHg 91%
    07:00 +3°C° 0.2 mm 1 mps 646 mmHg 90%
    08:00 +3°C° 0.2 mm 1 mps 646 mmHg 88%
    09:00 +3°C° 0.2 mm 1 mps 646 mmHg 86%
    10:00 +4°C° 0.1 mm 1 mps 645 mmHg 83%
    11:00 +3°C° 0.1 mm 2 mps 645 mmHg 81%
    12:00 +4°C° 0.1 mm 2 mps 644 mmHg 78%
    13:00 +4°C° 0.7 mm 2 mps 643 mmHg 80%
    14:00 +4°C° 0.7 mm 2 mps 643 mmHg 82%
    15:00 +4°C° 0.7 mm 2 mps 642 mmHg 83%
    16:00 +3°C° 1.1 mm 2 mps 642 mmHg 84%
    17:00 +3°C° 1.1 mm 2 mps 642 mmHg 85%
    18:00 +3°C° 1.1 mm 2 mps 642 mmHg 86%
    19:00 +3°C° 0.5 mm 2 mps 642 mmHg 86%
    20:00 +2°C° 0.5 mm 2 mps 642 mmHg 86%
    21:00 +2°C° 0.5 mm 2 mps 642 mmHg 86%
    22:00 +2°C° 1.3 mm 2 mps 642 mmHg 88%
    23:00 +2°C° 1.3 mm 2 mps 643 mmHg 90%

    13 December, Thursday

    Time Temperature Precipitation Wind Pressure Humidity
    00:00 +2°C° 1.3 mm 2 mps 643 mmHg 92%
    01:00 +1°C° 1.1 mm 2 mps 644 mmHg 93%
    02:00 +1°C° 1.1 mm 2 mps 644 mmHg 95%
    03:00 +1°C° 1.1 mm 2 mps 644 mmHg 96%
    04:00 -1°C° 1 mm 2 mps 645 mmHg 96%
    05:00 -1°C° 1 mm 2 mps 645 mmHg 96%
    06:00 -1°C° 1 mm 2 mps 645 mmHg 96%
    07:00 -1°C° 0.9 mm 2 mps 646 mmHg 95%
    08:00 -2°C° 0.9 mm 2 mps 647 mmHg 95%
    09:00 -2°C° 0.9 mm 2 mps 647 mmHg 94%
    10:00 -2°C° 0.5 mm 2 mps 648 mmHg 93%
    11:00 -1°C° 0.5 mm 2 mps 648 mmHg 91%
    12:00 -1°C° 0.5 mm 2 mps 648 mmHg 90%
    13:00 -1°C° 0.5 mm 2 mps 648 mmHg 90%
    14:00 -2°C° 0.5 mm 2 mps 649 mmHg 90%
    15:00 -2°C° 0.5 mm 2 mps 649 mmHg 91%
    16:00 0°C° 0.4 mm 1 mps 649 mmHg 92%
    17:00 -1°C° 0.4 mm 1 mps 650 mmHg 94%
    18:00 -2°C° 0.4 mm 1 mps 650 mmHg 95%
    19:00 -2°C° 0.2 mm 1 mps 650 mmHg 95%
    20:00 -3°C° 0.2 mm 1 mps 650 mmHg 94%
    21:00 -3°C° 0.2 mm 1 mps 651 mmHg 94%
    22:00 -4°C° 0 mm 1 mps 651 mmHg 92%
    23:00 -6°C° 0 mm 1 mps 651 mmHg 90%

    14 December, Friday

    Time Temperature Precipitation Wind Pressure Humidity
    00:00 -6°C° 0 mm 1 mps 651 mmHg 89%
    01:00 -7°C° 0 mm 1 mps 650 mmHg 87%
    02:00 -8°C° 0 mm 2 mps 650 mmHg 85%
    03:00 -8°C° 0 mm 2 mps 650 mmHg 84%
    04:00 -8°C° 0 mm 2 mps 650 mmHg 83%
    05:00 -8°C° 0 mm 2 mps 650 mmHg 82%
    06:00 -7°C° 0 mm 2 mps 650 mmHg 81%
    07:00 -7°C° 0 mm 2 mps 650 mmHg 80%
    08:00 -6°C° 0 mm 2 mps 651 mmHg 79%
    09:00 -6°C° 0 mm 2 mps 651 mmHg 78%
    10:00 -4°C° 0 mm 2 mps 651 mmHg 76%
    11:00 -1°C° 0 mm 1 mps 651 mmHg 74%
    12:00 0°C° 0 mm 1 mps 651 mmHg 72%
    13:00 0°C° 0 mm 1 mps 651 mmHg 75%
    14:00 0°C° 0 mm 1 mps 651 mmHg 77%
    15:00 -1°C° 0 mm 1 mps 651 mmHg 80%
    16:00 -2°C° 0 mm 1 mps 652 mmHg 81%
    17:00 -3°C° 0 mm 1 mps 652 mmHg 83%
    18:00 -4°C° 0 mm 1 mps 652 mmHg 84%
    19:00 -6°C° 0 mm 1 mps 652 mmHg 83%
    20:00 -6°C° 0 mm 1 mps 652 mmHg 82%
    21:00 -8°C° 0 mm 2 mps 652 mmHg 81%
    22:00 -8°C° 0 mm 2 mps 652 mmHg 80%
    23:00 -8°C° 0 mm 2 mps 652 mmHg 80%

    15 December, Saturday

    Time Temperature Precipitation Wind Pressure Humidity
    00:00 -9°C° 0 mm 2 mps 652 mmHg 80%
    01:00 -9°C° 0 mm 2 mps 652 mmHg 79%
    02:00 -9°C° 0 mm 2 mps 652 mmHg 79%
    03:00 -9°C° 0 mm 2 mps 652 mmHg 79%
    04:00 -9°C° 0 mm 2 mps 652 mmHg 78%
    05:00 -9°C° 0 mm 2 mps 652 mmHg 78%
    06:00 -9°C° 0 mm 2 mps 652 mmHg 77%
    07:00 -8°C° 0 mm 2 mps 653 mmHg 76%
    08:00 -7°C° 0 mm 2 mps 653 mmHg 75%
    09:00 -6°C° 0 mm 2 mps 653 mmHg 74%
    10:00 -5°C° 0 mm 2 mps 653 mmHg 73%
    11:00 -1°C° 0 mm 1 mps 653 mmHg 71%
    12:00 +1°C° 0 mm 1 mps 653 mmHg 70%
    13:00 +1°C° 0 mm 1 mps 653 mmHg 72%
    14:00 +1°C° 0 mm 1 mps 653 mmHg 75%
    15:00 +1°C° 0 mm 1 mps 653 mmHg 77%
    16:00 0°C° 0.1 mm 1 mps 653 mmHg 80%
    17:00 -1°C° 0.1 mm 1 mps 653 mmHg 82%
    18:00 -2°C° 0.1 mm 1 mps 653 mmHg 84%
    19:00 -3°C° 0.1 mm 1 mps 654 mmHg 84%
    20:00 -3°C° 0.1 mm 1 mps 654 mmHg 84%
    21:00 -3°C° 0.1 mm 1 mps 654 mmHg 84%
    22:00 -3°C° 0 mm 1 mps 654 mmHg 84%
    23:00 -3°C° 0 mm 1 mps 654 mmHg 84%
    Show more